GW0552 Weather Reports


Display with metric or nautical units.
time (UTC)temp
F
wind
direction
speed
MPH
gust
MPH
rain 1hr
in
rain 24hr
in
rain mn
in
humidity
%
barometer
mb
20260901225214 85 127 1.0 1.0 0.00 0.00 0.00 78 1013.2
20260901224711 86 126 1.0 2.0 0.00 0.00 0.00 76 1013.3
20260901224207 87 126 1.0 1.0 0.00 0.00 0.00 74 1013.3
20260901223702 87 125 3.0 5.0 0.00 0.00 0.00 73 1013.3
20260901223157 88 126 1.0 1.0 0.00 0.00 0.00 73 1013.2
20260901222653 88 125 2.0 2.0 0.00 0.00 0.00 71 1013.3
20260901222149 88 126 1.0 1.0 0.00 0.00 0.00 71 1013.2
20260901221645 90 131 2.0 2.0 0.00 0.00 0.00 71 1013.5
20260901221140 91 131 1.0 1.0 0.00 0.00 0.00 69 1013.3
20260901220639 92 130 1.0 1.0 0.00 0.00 0.00 68 1013.1
20260901220139 94 128 0.0 0.0 0.00 0.00 0.00 66 1013.3
20260901215637 93 127 0.0 0.0 0.00 0.00 0.00 64 1013.3
20260901215132 92 131 1.0 1.0 0.00 0.00 0.00 65 1013.4
20260901214631 92 126 0.0 0.0 0.00 0.00 0.00 67 1013.4
20260901214130 93 125 0.0 0.0 0.00 0.00 0.00 68 1013.6
20260901213625 92 131 0.0 0.0 0.00 0.00 0.00 65 1013.7
20260901213120 91 130 1.0 1.0 0.00 0.00 0.00 68 1013.8
20260901212619 89 132 0.0 0.0 0.00 0.00 0.00 70 1013.4
20260901212116 88 133 0.0 0.0 0.00 0.00 0.00 76 1013.6
20260901211610 88 129 0.0 0.0 0.00 0.00 0.00 77 1013.8
20260901211107 89 132 0.0 0.0 0.00 0.00 0.00 76 1013.8
20260901210602 90 132 0.0 0.0 0.00 0.00 0.00 75 1013.9
20260901210058 88 130 0.0 0.0 0.00 0.00 0.00 77 1013.9
20260901205553 88 130 0.0 0.0 0.00 0.00 0.00 75 1014.2
20260901205047 89 130 1.0 1.0 0.00 0.00 0.00 74 1013.7
20260901204544 88 130 1.0 1.0 0.00 0.00 0.00 74 1013.9
20260901204039 89 129 1.0 1.0 0.00 0.00 0.00 73 1014.2
20260901203539 88 128 0.0 0.0 0.00 0.00 0.00 74 1014.1
20260901203034 88 128 0.0 0.0 0.00 0.00 0.00 72 1014.1
20260901202529 90 128 0.0 0.0 0.00 0.00 0.00 72 1014.0
20260901202025 91 128 0.0 0.0 0.00 0.00 0.00 69 1014.1
20260901201520 92 128 0.0 0.0 0.00 0.00 0.00 68 1014.1
20260901201014 93 129 0.0 0.0 0.00 0.00 0.00 61 1014.3
20260901200509 93 128 0.0 0.0 0.00 0.00 0.00 60 1014.2
20260901200008 92 113 1.0 1.0 0.00 0.00 0.00 60 1014.4
20260901195506 92 118 2.0 2.0 0.00 0.00 0.00 61 1014.3
20260901195006 90 122 0.0 0.0 0.00 0.00 0.00 69 1014.4
20260901194501 91 108 1.0 1.0 0.00 0.00 0.00 65 1014.3
20260901193957 91 127 0.0 0.0 0.00 0.00 0.00 63 1014.5
20260901193456 91 124 1.0 1.0 0.00 0.00 0.00 64 1014.4
20260901192956 92 132 2.0 3.0 0.00 0.00 0.00 63 1014.4
20260901192452 92 122 0.0 0.0 0.00 0.00 0.00 63 1014.4
20260901191948 93 114 0.0 1.0 0.00 0.00 0.00 62 1014.6
20260901191446 93 109 2.0 2.0 0.00 0.00 0.00 61 1014.6
20260901190939 93 117 0.0 0.0 0.00 0.00 0.00 60 1014.6
20260901190434 93 117 5.0 6.0 0.00 0.00 0.00 59 1014.7
20260901185932 93 130 3.0 5.0 0.00 0.00 0.00 61 1014.7
20260901185432 92 112 0.0 1.0 0.00 0.00 0.00 62 1014.8
20260901184926 92 112 0.0 0.0 0.00 0.00 0.00 61 1014.7
20260901184421 92 121 0.0 1.0 0.00 0.00 0.00 61 1014.6
20260901183917 92 128 1.0 2.0 0.00 0.00 0.00 60 1015.0
20260901183416 94 125 0.0 0.0 0.00 0.00 0.00 52 1014.8
20260901182912 94 122 0.0 0.0 0.00 0.00 0.00 58 1014.9
20260901182407 92 120 0.0 0.0 0.00 0.00 0.00 57 1015.0
20260901181902 92 119 0.0 0.0 0.00 0.00 0.00 56 1015.1
20260901181357 93 109 3.0 3.0 0.00 0.00 0.00 56 1014.9
20260901180856 94 113 0.0 0.0 0.00 0.00 0.00 54 1015.1
20260901180355 94 99 0.0 0.0 0.00 0.00 0.00 56 1015.1
20260901175853 93 331 2.0 5.0 0.00 0.00 0.00 57 1015.1
20260901175348 94 259 3.0 5.0 0.00 0.00 0.00 55 1015.3
20260901174844 93 81 2.0 2.0 0.00 0.00 0.00 55 1015.2
20260901174339 93 150 3.0 6.0 0.00 0.00 0.00 53 1015.4
20260901173835 93 134 3.0 3.0 0.00 0.00 0.00 57 1015.4
20260901173329 92 336 4.0 5.0 0.00 0.00 0.00 58 1015.8
20260901172826 91 131 2.0 2.0 0.00 0.00 0.00 63 1015.7
20260901172325 90 111 0.0 0.0 0.00 0.00 0.00 65 1015.8
20260901171823 91 115 0.0 1.0 0.00 0.00 0.00 65 1015.9
20260901171323 91 82 2.0 2.0 0.00 0.00 0.00 63 1015.8
20260901170822 92 80 3.0 5.0 0.00 0.00 0.00 63 1015.9
20260901170317 92 124 0.0 1.0 0.00 0.00 0.00 65 1016.0
20260901165816 91 117 1.0 1.0 0.00 0.00 0.00 64 1015.9
20260901165310 92 121 2.0 3.0 0.00 0.00 0.00 63 1015.9
20260901164807 91 134 2.0 2.0 0.00 0.00 0.00 66 1015.8
20260901164302 91 118 4.0 5.0 0.00 0.00 0.00 65 1016.1
20260901163757 91 132 3.0 5.0 0.00 0.00 0.00 68 1015.7
20260901163257 92 117 7.0 7.0 0.00 0.00 0.00 67 1015.8
20260901162752 91 122 0.0 0.0 0.00 0.00 0.00 67 1015.8
20260901162251 90 117 2.0 3.0 0.00 0.00 0.00 67 1015.9
20260901161750 91 120 4.0 5.0 0.00 0.00 0.00 68 1015.8
20260901161244 90 116 2.0 2.0 0.00 0.00 0.00 68 1016.0
20260901160741 89 103 2.0 2.0 0.00 0.00 0.00 69 1015.9
20260901160236 89 129 3.0 3.0 0.00 0.00 0.00 71 1015.8
20260901155735 89 128 2.0 2.0 0.00 0.00 0.00 72 1016.0
20260901155230 89 118 3.0 3.0 0.00 0.00 0.00 71 1015.9
20260901154725 89 135 1.0 1.0 0.00 0.00 0.00 73 1016.1
20260901154220 88 117 1.0 1.0 0.00 0.00 0.00 76 1015.9
20260901153716 88 110 2.0 2.0 0.00 0.00 0.00 73 1015.9
20260901153209 88 145 1.0 3.0 0.00 0.00 0.00 74 1016.1
20260901152704 88 148 3.0 3.0 0.00 0.00 0.00 73 1016.1
20260901152203 87 120 1.0 1.0 0.00 0.00 0.00 75 1016.3
20260901151659 87 127 3.0 5.0 0.00 0.00 0.00 75 1016.0
20260901151158 88 115 5.0 7.0 0.00 0.00 0.00 72 1016.3
20260901150657 87 118 4.0 5.0 0.00 0.00 0.00 73 1016.0
20260901150155 86 118 1.0 1.0 0.00 0.00 0.00 78 1016.1
20260901145654 86 119 0.0 0.0 0.00 0.00 0.00 82 1016.2
20260901145154 86 130 1.0 2.0 0.00 0.00 0.00 80 1016.1
20260901144649 86 126 0.0 0.0 0.00 0.00 0.00 82 1016.1
20260901144144 85 122 0.0 0.0 0.00 0.00 0.00 81 1016.2
20260901143639 85 107 0.0 0.0 0.00 0.00 0.00 83 1016.4
20260901143136 85 104 1.0 2.0 0.00 0.00 0.00 85 1016.3
20260901142632 84 122 0.0 0.0 0.00 0.00 0.00 90 1016.2
20260901142131 83 117 0.0 1.0 0.00 0.00 0.00 89 1016.2
20260901141626 83 110 0.0 0.0 0.00 0.00 0.00 91 1016.3
20260901141120 83 114 1.0 1.0 0.00 0.00 0.00 90 1016.1
20260901140619 82 114 3.0 3.0 0.00 0.00 0.00 86 1016.2
20260901140118 81 119 4.0 6.0 0.00 0.00 0.00 87 1016.1
20260901135618 81 109 0.0 0.0 0.00 0.00 0.00 95 1016.2
20260901135113 80 117 1.0 1.0 0.00 0.00 0.00 96 1016.2
20260901134610 79 112 1.0 1.0 0.00 0.00 0.00 96 1016.3
20260901134104 79 110 1.0 2.0 0.00 0.00 0.00 97 1016.2
20260901133603 78 112 1.0 1.0 0.00 0.00 0.00 97 1016.1
20260901133102 77 97 1.0 2.0 0.00 0.00 0.00 99 1016.1
20260901132556 77 117 0.0 0.0 0.00 0.00 0.00 99 1016.3
20260901132051 77 115 0.0 0.0 0.00 0.00 0.00 99 1016.3
20260901131551 76 115 0.0 0.0 0.00 0.00 0.00 99 1016.3
20260901131045 75 114 0.0 0.0 0.00 0.00 0.00 99 1016.2
20260901130540 74 114 0.0 0.0 0.00 0.00 0.00 99 1016.3
20260901130039 74 116 0.0 0.0 0.00 0.00 0.00 99 1016.2
20260901125537 73 117 0.0 0.0 0.00 0.00 0.00 99 1016.1
20260901125033 73 121 0.0 0.0 0.00 0.00 0.00 99 1016.1
20260901124532 73 123 0.0 0.0 0.00 0.00 0.00 99 1016.4
20260901124027 72 122 0.0 0.0 0.00 0.00 0.00 99 1016.4
20260901123522 72 122 0.0 0.0 0.00 0.00 0.00 99 1016.3
20260901123021 71 123 0.0 0.0 0.00 0.00 0.00 99 1016.2
20260901122520 71 124 0.0 0.0 0.00 0.00 0.00 99 1016.5
20260901122014 71 124 0.0 0.0 0.00 0.00 0.00 99 1016.6
20260901121509 70 123 0.0 0.0 0.00 0.00 0.00 99 1016.1
20260901121004 70 122 0.0 0.0 0.00 0.00 0.00 99 1016.4
20260901120504 70 123 0.0 0.0 0.00 0.00 0.00 99 1016.3
20260901115959 70 122 0.0 0.0 0.00 0.00 0.00 99 1016.2
20260901115454 70 124 0.0 0.0 0.00 0.00 0.00 99 1016.2
20260901114952 69 122 0.0 0.0 0.00 0.00 0.00 99 1016.3
20260901114447 69 122 0.0 0.0 0.00 0.00 0.00 99 1016.1
20260901113945 69 122 0.0 0.0 0.00 0.00 0.00 99 1015.9
20260901113444 69 121 0.0 0.0 0.00 0.00 0.00 99 1015.9
20260901112939 69 122 0.0 0.0 0.00 0.00 0.00 99 1015.9
20260901112435 69 122 0.0 0.0 0.00 0.00 0.00 99 1016.0
20260901111924 69 122 0.0 0.0 0.00 0.00 0.00 99 1015.9
20260901111422 69 122 0.0 0.0 0.00 0.00 0.00 99 1015.7
20260901110921 69 123 0.0 0.0 0.00 0.00 0.00 99 1015.8
20260901110417 69 120 0.0 0.0 0.00 0.00 0.00 99 1015.3
20260901105913 69 123 0.0 0.0 0.00 0.00 0.00 99 1015.3
20260901105408 69 122 0.0 0.0 0.00 0.00 0.00 99 1015.5
20260901104904 69 122 0.0 0.0 0.00 0.00 0.00 99 1015.4
20260901104359 69 123 0.0 0.0 0.00 0.00 0.00 99 1015.4
20260901103854 70 121 0.0 0.0 0.00 0.00 0.00 99 1015.3
20260901103348 70 121 0.0 0.0 0.00 0.00 0.00 99 1015.3
20260901102843 69 121 0.0 0.0 0.00 0.00 0.00 99 1015.2
20260901102338 70 125 0.0 0.0 0.00 0.00 0.00 99 1015.2
20260901101834 70 124 0.0 0.0 0.00 0.00 0.00 99 1015.2
20260901101333 70 123 0.0 0.0 0.00 0.00 0.00 99 1015.1
20260901100833 70 123 0.0 0.0 0.00 0.00 0.00 99 1015.3
20260901100327 70 123 0.0 0.0 0.00 0.00 0.00 99 1015.2
20260901095827 70 123 0.0 0.0 0.00 0.00 0.00 99 1015.1
20260901095324 70 122 0.0 0.0 0.00 0.00 0.00 99 1015.0
20260901094818 70 121 0.0 0.0 0.00 0.00 0.00 99 1014.9
20260901094144 70 123 0.0 0.0 0.00 0.00 0.00 99 1015.1
20260901093639 70 123 0.0 0.0 0.00 0.00 0.00 99 1015.1
20260901093138 70 123 0.0 0.0 0.00 0.00 0.00 99 1015.1
20260901092634 70 122 0.0 0.0 0.00 0.00 0.00 99 1014.9
20260901092130 71 123 0.0 0.0 0.00 0.00 0.00 99 1014.9
20260901091626 70 122 0.0 0.0 0.00 0.00 0.00 99 1014.7
20260901091120 71 123 0.0 0.0 0.00 0.00 0.00 99 1014.9
20260901090359 71 124 0.0 0.0 0.00 0.00 0.00 99 1014.6
20260901085856 71 124 0.0 0.0 0.00 0.00 0.00 99 1014.6
20260901085351 71 122 0.0 0.0 0.00 0.00 0.00 99 1014.7
20260901084848 71 123 0.0 0.0 0.00 0.00 0.00 99 1014.6
20260901084343 71 120 0.0 0.0 0.00 0.00 0.00 99 1014.5
20260901083839 71 117 0.0 0.0 0.00 0.00 0.00 99 1014.6
20260901083338 71 120 0.0 0.0 0.00 0.00 0.00 99 1014.6
20260901082836 71 124 0.0 0.0 0.00 0.00 0.00 99 1014.6
20260901082332 71 125 0.0 0.0 0.00 0.00 0.00 99 1014.4
20260901081827 71 121 0.0 0.0 0.00 0.00 0.00 99 1014.6
20260901081322 71 122 0.0 0.0 0.00 0.00 0.00 99 1014.6
20260901080816 71 122 0.0 0.0 0.00 0.00 0.00 99 1014.5
20260901080316 71 122 0.0 0.0 0.00 0.00 0.00 99 1014.5
20260901075810 71 123 0.0 0.0 0.00 0.00 0.00 99 1014.4
20260901075307 71 119 0.0 0.0 0.00 0.00 0.00 99 1014.7
20260901074800 71 122 0.0 0.0 0.00 0.00 0.00 99 1014.5
20260901074255 71 123 0.0 0.0 0.00 0.00 0.00 99 1014.4
20260901073751 71 123 0.0 0.0 0.00 0.00 0.00 99 1014.6
20260901073246 71 122 0.0 0.0 0.00 0.00 0.00 99 1014.7
20260901072741 71 122 0.0 0.0 0.00 0.00 0.00 99 1014.6
20260901072236 71 122 0.0 0.0 0.00 0.00 0.00 99 1014.6
20260901071730 71 123 0.0 0.0 0.00 0.00 0.00 99 1014.6
20260901071225 71 122 0.0 0.0 0.00 0.00 0.00 99 1014.2
20260901070724 71 122 0.0 0.0 0.00 0.00 0.00 99 1014.2
20260901070219 71 122 0.0 0.0 0.00 0.00 0.00 99 1014.2
20260901065631 71 121 0.0 0.0 0.00 0.00 0.00 99 1014.5
20260901065126 71 121 0.0 0.0 0.00 0.00 0.00 99 1014.5
20260901064624 72 121 0.0 0.0 0.00 0.00 0.00 99 1014.3
20260901064120 72 117 0.0 0.0 0.00 0.00 0.00 99 1014.3
20260901063616 72 118 0.0 0.0 0.00 0.00 0.00 99 1014.1
20260901063112 72 120 0.0 0.0 0.00 0.00 0.00 99 1014.3
20260901062608 72 123 0.0 0.0 0.00 0.00 0.00 99 1014.4
20260901062103 72 121 0.0 0.0 0.00 0.00 0.00 99 1014.2
20260901061600 72 123 0.0 0.0 0.00 0.00 0.00 99 1014.2
20260901061054 72 120 0.0 0.0 0.00 0.00 0.00 99 1014.3
20260901060549 72 124 0.0 0.0 0.00 0.00 0.00 99 1014.4
20260901060044 72 122 0.0 0.0 0.00 0.00 0.00 99 1014.5
20260901055539 72 119 0.0 0.0 0.00 0.00 0.00 99 1014.6
20260901055036 72 122 0.0 0.0 0.00 0.00 0.00 99 1014.6
20260901054533 72 126 0.0 0.0 0.00 0.00 0.00 99 1014.6
20260901054028 73 122 0.0 0.0 0.00 0.00 0.00 99 1014.4
20260901053525 73 120 0.0 0.0 0.00 0.00 0.00 99 1014.6
20260901053020 73 124 0.0 0.0 0.00 0.00 0.00 99 1014.7
20260901052515 73 124 0.0 0.0 0.00 0.00 0.00 99 1014.9
20260901052014 73 123 0.0 0.0 0.00 0.00 0.00 99 1014.8
20260901051509 73 122 0.0 0.0 0.00 0.00 0.00 99 1014.9
20260901051008 73 122 0.0 0.0 0.00 0.00 0.00 99 1014.9
20260901050504 73 122 0.0 0.0 0.00 0.00 0.00 99 1014.9
20260901045958 73 119 0.0 0.0 0.00 0.00 0.00 99 1014.7
20260901045454 73 120 0.0 0.0 0.00 0.00 0.00 99 1014.8
20260901044948 73 120 0.0 0.0 0.00 0.00 0.00 99 1014.9
20260901044444 73 120 0.0 0.0 0.00 0.00 0.00 99 1014.9
20260901043940 73 122 0.0 0.0 0.00 0.00 0.00 99 1015.0
20260901043436 73 122 0.0 0.0 0.00 0.00 0.00 99 1014.9
20260901042936 74 125 0.0 0.0 0.00 0.00 0.00 99 1014.8
20260901042436 74 123 0.0 0.0 0.00 0.00 0.00 99 1014.9
20260901041931 74 124 0.0 0.0 0.00 0.00 0.00 99 1015.0
20260901041426 74 124 0.0 0.0 0.00 0.00 0.00 99 1015.1
20260901040925 74 122 0.0 0.0 0.00 0.00 0.00 99 1015.2
20260901040420 74 124 0.0 0.0 0.00 0.00 0.00 99 1015.1
20260901035919 74 124 0.0 0.0 0.00 0.00 0.00 99 1015.0
20260901035418 75 124 0.0 0.0 0.00 0.00 0.00 99 1015.1
20260901034916 75 127 0.0 0.0 0.00 0.00 0.00 99 1015.1
20260901034023 75 122 0.0 0.0 0.00 0.00 0.00 99 1015.2
20260901033521 75 122 0.0 0.0 0.00 0.00 0.00 99 1015.2
20260901033021 75 122 0.0 0.0 0.00 0.00 0.00 99 1015.2
20260901032515 75 127 1.0 1.0 0.00 0.00 0.00 99 1014.9
20260901032015 75 128 1.0 1.0 0.00 0.00 0.00 99 1015.2
20260901031511 75 130 1.0 2.0 0.00 0.00 0.00 99 1015.2
20260901031006 76 125 0.0 0.0 0.00 0.00 0.00 99 1015.4
20260901030501 76 120 0.0 0.0 0.00 0.00 0.00 99 1015.3
20260901030000 76 125 0.0 0.0 0.00 0.00 0.00 99 1015.1
20260901025455 76 126 0.0 0.0 0.00 0.00 0.00 99 1015.1
20260901024954 76 125 0.0 0.0 0.00 0.00 0.00 99 1015.0
20260901024450 76 126 1.0 1.0 0.00 0.00 0.00 99 1015.4
20260901023948 76 125 0.0 0.0 0.00 0.00 0.00 99 1015.1
20260901023443 77 124 0.0 0.0 0.00 0.00 0.00 99 1015.2
20260901022938 77 125 1.0 1.0 0.00 0.00 0.00 99 1015.2
20260901022434 77 123 0.0 1.0 0.00 0.00 0.00 99 1015.4
20260901021928 77 125 0.0 0.0 0.00 0.00 0.00 99 1015.3
20260901021424 77 124 0.0 0.0 0.00 0.00 0.00 99 1015.2
20260901020919 77 124 0.0 0.0 0.00 0.00 0.00 99 1015.1
20260901020415 77 122 0.0 0.0 0.00 0.00 0.00 99 1015.2
20260901015913 77 122 0.0 0.0 0.00 0.00 0.00 99 1015.0
20260901015410 77 123 0.0 0.0 0.00 0.00 0.00 99 1015.1
20260901014909 77 123 0.0 0.0 0.00 0.00 0.00 99 1015.0
20260901014406 77 124 0.0 0.0 0.00 0.00 0.00 99 1015.2
20260901013901 78 125 0.0 0.0 0.00 0.00 0.00 99 1014.9
20260901013356 78 126 0.0 0.0 0.00 0.00 0.00 99 1014.8
20260901012852 78 124 0.0 0.0 0.00 0.00 0.00 99 1014.9
20260901012347 78 123 0.0 0.0 0.00 0.00 0.00 98 1014.6
20260901011842 78 124 1.0 1.0 0.00 0.00 0.00 98 1014.8
20260901011338 78 126 0.0 0.0 0.00 0.00 0.00 98 1014.7
20260901010831 78 125 0.0 1.0 0.00 0.00 0.00 98 1014.5
20260901010326 78 124 0.0 0.0 0.00 0.00 0.00 97 1014.6
20260901005825 78 123 0.0 0.0 0.00 0.00 0.00 96 1014.4
20260901005320 78 123 0.0 0.0 0.00 0.00 0.00 96 1014.4
20260901004820 79 124 0.0 0.0 0.00 0.00 0.00 96 1014.4
20260901004314 79 124 0.0 0.0 0.00 0.00 0.00 96 1014.5
20260901003814 79 124 0.0 0.0 0.00 0.00 0.00 96 1014.1
20260901003309 79 125 0.0 0.0 0.00 0.00 0.00 96 1014.1
20260901002803 79 126 0.0 0.0 0.00 0.00 0.00 96 1014.1
20260901002258 80 125 0.0 0.0 0.00 0.00 0.00 95 1013.8
20260901001752 80 125 0.0 0.0 0.00 0.00 0.00 95 1013.8
20260901001248 80 126 0.0 0.0 0.00 0.00 0.00 95 1013.6
20260901000743 80 127 0.0 0.0 0.00 0.00 0.00 95 1013.7
20260901000241 80 126 0.0 0.0 0.00 0.00 0.00 94 1013.9
20260831235737 81 127 0.0 0.0 0.00 0.00 0.00 94 1013.8
20260831235233 81 126 0.0 0.0 0.00 0.00 0.00 93 1013.9
20260831234733 81 126 0.0 1.0 0.00 0.00 0.00 93 1014.0
20260831234233 81 126 0.0 1.0 0.00 0.00 0.00 93 1013.8
20260831233728 82 127 0.0 0.0 0.00 0.00 0.00 92 1013.8
20260831233224 82 126 0.0 0.0 0.00 0.00 0.00 91 1013.9
20260831232723 82 127 1.0 1.0 0.00 0.00 0.00 91 1013.9
20260831232220 82 126 0.0 0.0 0.00 0.00 0.00 90 1013.8
20260831231716 83 124 0.0 1.0 0.00 0.00 0.00 90 1014.0
20260831231212 83 127 1.0 1.0 0.00 0.00 0.00 89 1013.9
20260831230712 84 126 1.0 2.0 0.00 0.00 0.00 88 1014.0
20260831230207 84 124 1.0 1.0 0.00 0.00 0.00 87 1013.8
20260831225706 84 131 1.0 1.0 0.00 0.00 0.00 88 1013.8